Location: Newark
(49.3000°N, 9.4667°E)
Time: 21:32:39
(UTC+00:00)

Transit 4A - Pass Details

Date: 01 June 2019
Orbit: 862 x 983 km, 66.8° (Epoch: 16 June)

Event Time Altitude Azimuth Distance (km) Brightness Sun altitude
Rises 21:49:04 0° 319° (NW) 3,697 12.5 -15.8°
Reaches altitude 10° 21:51:53 10° 311° (NW) 2,742 11.3 -15.9°
Maximum altitude 21:57:33 34° 249° (WSW) 1,543 9.0 -16.3°
Enters shadow 22:01:24 18° 196° (SSW) 2,168 9.4 -16.5°
